OKEAN-0
1 25860U 99039A 11327.97680804 .00001291 00000-0 20400-3 0 04758
2 25860 097.9062 290.2331 0001064 109.3692 250.7631 14.73969047664197
NOAA-16
1 26536U 00055A 11327.86571478 .00000461 00000-0 27387-3 0 05135
2 26536 099.1248 001.5237 0009918 306.0875 053.9358 14.12674662575909
NOAA-17
1 27453U 02032A 11327.71283847 .00000347 00000-0 16758-3 0 04968
2 27453 098.3624 359.9519 0012477 045.4205 314.7997 14.24353740489360
NOAA-18
1 28654U 05018A 11327.73360525 .00000197 00000-0 13345-3 0 09743
2 28654 099.0179 279.4331 0014679 018.5828 341.5883 14.11557082335434
NOAA-19
1 33591U 09005A 11327.69527595 .00000152 00000-0 10857-3 0 01632
2 33591 098.8429 265.2785 0013311 244.7929 115.1866 14.11247222143882
HUBBLE
1 20580U 90037B 11326.31132196 .00003790 00000-0 27084-3 0 8928
2 20580 028.4700 063.2810 0003036 006.5468 353.5081 15.01859302983446
ISS
1 25544U 98067A 11328.84914510 .00062142 00000-0 77682-3 0 4978
2 25544 051.6422 072.2593 0030676 087.7073 006.3431 15.58656604745991
CO-58
1 28895U 05043F 11327.66127578 .00001346 00000-0 28710-3 0 00323
2 28895 097.9429 197.6776 0018847 080.0603 280.2722 14.60328836323510
FALCON
1 30776U 07006E 11327.78574134 .00008100 00000-0 54934-3 0 2225
2 30776 035.4319 095.9887 0002401 012.6025 347.4752 15.05815440259101
MAST
1 31126U 07012K 11327.98691437 .00001105 00000-0 25753-3 0 03215
2 31126 097.8854 346.0978 0095004 033.5700 327.1467 14.53914240244305
CAPE1
1 31130U 07012P 11327.50031586 .00001454 00000-0 34177-3 0 03296
2 31130 097.8902 342.1940 0102805 046.7728 314.2009 14.52606554243767
COMPASS
1 32787U 08021E 11327.68583620 .00004536 00000-0 56220-3 0 01549
2 32787 097.8321 028.4081 0015925 019.9189 340.2667 14.83080973193195
AAUSAT2
1 32788U 08021F 11327.83016736 .00004669 00000-0 57524-3 0 1439
2 32788 097.8323 028.8292 0015373 020.7422 339.4394 14.83321501193230
DO-64
1 32789U 08021G 11327.70795450 .00007080 00000-0 85063-3 0 01599
2 32789 097.8410 030.0577 0015375 017.3341 342.8407 14.84191090193235
CO-66
1 32791U 08021J 11327.80705193 .00003748 00000-0 47033-3 0 01488
2 32791 097.8337 028.4067 0016375 018.7842 341.3989 14.82660434193154
RS-30
1 32953U 08025A 11328.23969382 .00000010 00000-0 00000 0 0 2841
2 32953 082.5026 063.2078 0019326 040.3957 319.8566 12.43017468158976
TACSAT-3
1 35001U 09028A 11327.96180544 .00084064 00000-0 98334-3 0 07832
2 35001 040.4557 277.2324 0011863 299.8741 060.0792 15.60431319141926
PHARMSAT
1 35002U 09028B 11327.98644236 .00058991 00000-0 78300-3 0 07176
2 35002 040.4727 276.8049 0015224 322.6707 037.3099 15.57167724141937
HAWKSAT1
1 35003U 09028C 11276.79285837 .02274821 58283-2 19360-2 0 8114
2 35003 040.4398 174.3672 0011414 274.3918 085.3844 16.13812532134570
CP6
1 35004U 09028D 11247.64656856 .16152067 73217-5 10011-2 0 7842
2 35004 040.4403 342.9642 0002956 038.0069 322.2231 16.41039951130139
METEOR-M
1 35865U 09049A 11328.73821359 .00000031 00000-0 33980-4 0 9296
2 35865 098.6861 021.6108 0001969 303.9637 056.1348 14.21847972113402
RS-38
1 35869U 09049E 11328.71795382 .00000106 00000-0 67857-4 0 9084
2 35869 098.6826 021.6140 0003991 293.4720 066.6037 14.22037435113414
ARISSAT1
1 37772U 98067CK 11328.76565514 .00257287 00000-0 12512-2 0 3482
2 37772 051.6337 067.0376 0004313 050.3415 087.3395 15.81126381 17639
SRMSAT
1 37839U 11058B 11327.82303341 .00000619 00000-0 19019-3 0 00375
2 37839 019.9623 168.3689 0019255 111.3391 248.9070 14.11994545006047
JUGNU
1 37841U 11058D 11327.80975646 .00000264 00000-0 00000 0 0 337
2 37841 019.9728 169.2965 0011139 086.3993 273.7725 14.10089676 6025
